Simultaneous Nadir Overpasses (SNOs) Predictions

Prediction of SNOs between AQUA and GOES-15 Satellite Orbit:

Table of predicted SNOs for the next 14.0 days since TLE Epoch: 1/6/2012
Index Date Time (AQUA) AQUA Lat,Lon GOES-15 Lat,Lon Distance(km) Time Diff (sec)
1 01/07/2012 22:16:27 0.94,-130.48 0.03,-134.73 483.92 80
2 01/08/2012 10:37:43 0.14,-135.64 -0.03,-134.76 99.55 80
3 01/10/2012 10:25:32 -0.49,-132.68 -0.03,-134.74 234.33 80
4 01/10/2012 22:46:56 -0.63,-137.87 0.04,-134.70 359.99 80
5 01/12/2012 22:34:44 -0.03,-134.90 0.04,-134.67 26.75 80
6 01/14/2012 22:22:32 0.59,-131.94 0.03,-134.64 306.20 80
7 01/15/2012 10:43:48 0.47,-137.10 -0.04,-134.65 278.22 80
8 01/17/2012 10:31:35 -0.11,-134.13 -0.03,-134.61 54.08 80
9 01/19/2012 10:19:22 -0.71,-131.16 -0.02,-134.56 385.76 80
10 01/19/2012 22:40:46 -0.37,-136.35 0.02,-134.52 208.50 80




NCC Satellite Simultaneous Nadir Overpasses (SNOs) Prediction Service
